Погода в Тумате

Россия / Республика Саха (Якутия)     70°43′20″N   139°13′33″E
темп.,
°C
ветер,
м/с
пор.,
м/с
влажн.,
%
обл.,
%
осадки,
мм/ч
давл.,
гПа
погр.,
м
27 февраля, сб
сб2701:00−34вюв229097 0.0 103419
04:00−35в229786 0.0 103319
07:00−36в229843 0.0 103319
10:00−35в229746 0.0 103319
13:00−33юв119427 0.0 103219
16:00−34всв119417 0.0 103119
19:00−36вюв11973 0.0 103119
22:00−36вюв119621 0.0 103119
28 февраля, вс
вс2801:00−36в119725 0.0 103019
04:00−36в119919 0.0 102819
07:00−36в12988 0.0 102819
10:00−35в229711 0.0 102719
13:00−33всв229436 0.0 102719
16:00−33всв229446 0.0 102619
19:00−35всв119864 0.0 102719
22:00−36в119963 0.0 102619
1 марта, пн
пн101:00−37сз019958 0.0 102619
04:00−37зюз019963 0.0 102619
07:00−38зюз1110028 0.0 102619
10:00−37зюз019914 0.0 102619
13:00−35зсз11953 0.0 102519
16:00−37сз11973 0.0 102519
19:00−39зсз111003 0.0 102619
22:00−39з111005 0.0 102619
2 марта, вт
вт201:00−39з11988 0.0 102718
04:00−39з129726 0.0 102718
07:00−39зюз129880 0.0 102818
10:00−39з129659 0.0 102818
13:00−37зсз119565 0.0 102828
16:00−38зсз119676 0.0 102919
19:00−39зюз0110070 0.0 102918
22:00−39з0010066 0.0 103018
3 марта, ср
ср301:00−40св0010079 0.0 102918
04:00−39всв1110083 0.0 102918
07:00−39всв1210089 0.0 102918
10:00−38всв229893 0.0 102819
13:00−35св229794 0.0 102751
16:00−36св239896 0.0 102621
19:00−37всв2399100 0.0 102619
22:00−38всв2299100 0.0 102418